1486267200.85,32079,9.25,72182.5,-6.07,-6.89,-6.89,0,*5E
1486267202.05,32080,9.31,72184.0,-6.09,-6.89,-6.89,0,*56
1486267203.29,32081,9.31,72184.8,-6.07,-6.89,-7.01,0,*58
1486267204.57,32082,9.31,72186.5,-6.07,-6.93,-7.01,0,*50
1486267205.85,32083,9.25,72186.0,-6.07,-6.93,-6.93,0,*5B
1486267207.09,32084,9.31,72186.0,-6.07,-6.89,-6.93,0,*57
1486267208.37,32085,9.25,72186.0,-6.07,-6.93,-7.01,0,*57
1486267209.65,32086,9.25,72184.0,-6.07,-6.93,-6.93,0,*5E
1486267210.92,32087,9.25,72186.5,-6.07,-6.93,-6.93,0,*5F
1486267212.14,32088,9.25,72184.8,-6.07,-6.89,-6.89,0,*50
1486267213.37,32089,9.25,72184.3,-6.07,-6.89,-6.89,0,*51
1486267214.59,32090,9.25,72186.8,-6.07,-6.89,-6.89,0,*59
1486267215.79,32091,9.25,72184.0,-6.09,-6.89,-6.89,0,*56
1486267216.98,32092,9.25,72184.0,-6.09,-6.89,-6.89,0,*55
1486267218.18,32093,9.31,72188.5,-6.09,-6.89,-6.89,0,*54
1486267219.41,32094,9.25,72188.0,-6.09,-6.93,-6.89,0,*58
1486267220.68,32095,9.31,72186.8,-6.07,-7.01,-7.01,0,*5C
1486267221.95,32096,9.31,72186.3,-6.07,-6.93,-6.93,0,*5F
1486267223.23,32097,9.25,72180.5,-6.07,-6.93,-6.93,0,*5E
1486267224.45,32098,9.31,72184.0,-6.07,-6.89,-6.85,0,*5D
1486267225.68,32099,9.31,72180.8,-6.07,-6.89,-6.89,0,*50
1486267226.9,32100,9.31,72182.8,-6.07,-6.89,-6.89,0,*51
1486267228.12,32101,9.25,72180.3,-6.07,-6.89,-6.89,0,*50
1486267229.35,32102,9.31,72186.8,-6.07,-6.85,-6.89,0,*5F
1486267230.57,32103,9.25,72184.3,-6.07,-6.89,-6.89,0,*52
1486267231.79,32104,9.31,72184.0,-6.07,-6.85,-6.85,0,*55
1486267233.01,32105,9.31,72188.3,-6.07,-6.89,-6.85,0,*58
1486267234.23,32106,9.31,72188.3,-6.07,-6.85,-6.89,0,*5B
1486267235.46,32107,9.25,72190.0,-6.07,-6.89,-6.89,0,*56
1486267236.68,32108,9.25,72186.0,-6.07,-6.89,-6.89,0,*59
1486267237.9,32109,9.25,72186.5,-6.07,-6.89,-6.89,0,*58
1486267239.15,32110,9.31,72186.8,-6.07,-6.93,-6.89,0,*5B
1486267240.41,32111,9.25,72184.5,-6.07,-6.93,-6.89,0,*5A
1486267241.66,32112,9.25,72184.3,-6.07,-6.93,-6.89,0,*59
1486267242.91,32113,9.25,72180.0,-6.07,-6.93,-6.89,0,*58
1486267244.13,32114,9.31,72184.3,-6.07,-6.89,-6.89,0,*54
1486267245.36,32115,9.25,72178.8,-6.07,-6.89,-6.89,0,*55
1486267246.58,32116,9.25,72180.0,-6.07,-6.89,-6.85,0,*5A
1486267247.8,32117,9.25,72184.0,-6.07,-6.89,-6.89,0,*57
1486267249.03,32118,9.25,72184.5,-6.07,-6.89,-6.89,0,*58
1486267250.25,32119,9.25,72182.0,-6.07,-6.89,-6.85,0,*55
1486267251.47,32120,9.25,72182.8,-6.07,-6.89,-6.85,0,*5F
1486267252.72,32121,9.31,72184.3,-6.07,-6.93,-6.89,0,*59
1486267253.97,32122,9.25,72178.5,-6.07,-6.93,-6.89,0,*5A
1486267255.22,32123,9.25,72176.3,-6.07,-6.93,-6.89,0,*5B
1486267256.47,32124,9.25,72178.3,-6.07,-6.93,-6.89,0,*5C
1486267257.67,32125,9.25,72180.5,-6.05,-6.89,-6.85,0,*58
1486267258.92,32126,9.25,72178.8,-6.07,-6.93,-6.89,0,*5E
1486267260.17,32127,9.25,72182.8,-6.07,-6.93,-6.89,0,*5F
1486267261.4,32128,9.25,72184.5,-6.07,-6.89,-6.89,0,*5B
1486267262.62,32129,9.25,72184.3,-6.07,-6.89,-6.89,0,*5A
1486267263.9,32130,9.25,72184.3,-6.07,-6.93,-6.93,0,*52
1486267265.16,32131,9.25,72182.8,-6.07,-7.01,-7.05,0,*57
1486267266.38,32132,9.25,72184.5,-6.05,-6.89,-6.97,0,*5D
1486267267.58,32133,9.25,72184.5,-6.05,-6.89,-6.89,0,*53
1486267268.77,32134,9.31,72186.3,-6.05,-6.89,-6.89,0,*54
1486267270.05,32135,9.31,72188.5,-6.07,-6.93,-6.93,0,*57
1486267271.25,32136,9.25,72186.0,-6.05,-6.89,-6.89,0,*56
1486267272.52,32137,9.25,72178.5,-6.07,-6.93,-7.01,0,*5F
1486267273.8,32138,9.31,72184.0,-6.07,-6.93,-6.93,0,*5A
1486267275.07,32139,9.31,72184.3,-6.07,-6.93,-6.93,0,*5B
1486267276.3,32140,9.25,72184.3,-6.07,-6.89,-6.85,0,*59
1486267277.49,32141,9.25,72186.8,-6.05,-6.85,-6.89,0,*5A
1486267278.69,32142,9.25,72184.3,-6.05,-6.85,-6.85,0,*55
1486267279.91,32143,9.31,72186.5,-6.07,-6.89,-6.85,0,*5A
1486267281.16,32144,9.31,72188.8,-6.07,-6.89,-6.93,0,*5A
1486267282.38,32145,9.25,72184.3,-6.05,-6.97,-6.89,0,*5D
1486267283.65,32146,9.25,72184.8,-6.07,-7.05,-7.01,0,*57
1486267284.93,32147,9.25,72180.5,-6.07,-6.93,-6.93,0,*52
1486267286.18,32148,9.25,72182.3,-6.07,-6.93,-6.89,0,*56
1486267287.43,32149,9.31,72184.5,-6.07,-6.93,-6.89,0,*57
1486267288.63,32150,9.25,72184.0,-6.05,-6.81,-6.85,0,*52
1486267289.83,32151,9.31,72184.8,-6.05,-6.85,-6.85,0,*57
1486267291.08,32152,9.31,72186.5,-6.07,-6.89,-6.93,0,*5D
1486267292.35,32153,9.31,72186.5,-6.07,-7.01,-7.01,0,*57
1486267293.57,32154,9.25,72180.5,-6.05,-6.89,-6.97,0,*5D
1486267294.84,32155,9.31,72184.8,-6.07,-6.93,-6.93,0,*51
1486267296.12,32156,9.25,72178.8,-6.07,-6.93,-6.93,0,*52
1486267297.4,32157,9.31,72184.3,-6.07,-6.93,-6.93,0,*53
1486267298.67,32158,9.31,72180.8,-6.07,-7.01,-6.93,0,*56
1486267299.92,32159,9.31,72186.3,-6.07,-7.01,-6.89,0,*5C
1486267301.17,32160,9.31,72184.3,-6.07,-6.93,-6.85,0,*50
1486267302.39,32161,9.25,72184.8,-6.09,-6.93,-6.89,0,*53
1486267303.67,32162,9.25,72182.5,-6.07,-6.93,-7.01,0,*5F
1486267304.94,32163,9.25,72182.5,-6.07,-7.01,-7.01,0,*54
1486267306.22,32164,9.31,72182.3,-6.07,-6.93,-6.93,0,*53
1486267307.49,32165,9.25,72178.8,-6.07,-7.01,-6.93,0,*58
1486267308.71,32166,9.31,72184.0,-6.05,-6.89,-6.97,0,*5C
1486267309.94,32167,9.31,72184.0,-6.05,-6.97,-6.89,0,*5D
1486267311.21,32168,9.25,72182.3,-6.07,-6.93,-6.93,0,*5F
1486267312.43,32169,9.31,72186.8,-6.07,-6.89,-6.89,0,*5E
1486267313.66,32170,9.25,72182.8,-6.07,-6.89,-6.89,0,*56
1486267314.93,32171,9.25,72180.0,-6.07,-6.93,-6.93,0,*57
1486267316.21,32172,9.25,72176.0,-6.07,-6.93,-6.93,0,*54
1486267317.49,32173,9.25,72180.8,-6.07,-6.93,-6.93,0,*55
1486267318.76,32174,9.25,72182.5,-6.07,-6.93,-6.93,0,*52
1486267320.04,32175,9.25,72182.5,-6.07,-6.93,-6.93,0,*53
1486267321.31,32176,9.25,72182.0,-6.07,-6.93,-6.93,0,*50
1486267322.59,32177,9.25,72178.3,-6.07,-6.93,-6.93,0,*51
1486267323.87,32178,9.25,72176.8,-6.07,-6.93,-6.93,0,*5E
1486267325.14,32179,9.25,72178.5,-6.07,-6.93,-7.01,0,*55
1486267326.39,32180,9.25,72174.3,-6.05,-7.01,-6.97,0,*55
1486267327.65,32181,9.25,72176.0,-6.07,-7.05,-7.05,0,*58
1486267328.88,32182,9.25,72186.5,-6.05,-7.01,-7.11,0,*58
1486267330.13,32183,9.25,72180.8,-6.09,-7.01,-7.01,0,*54
1486267331.37,32184,9.31,72184.5,-6.07,-7.15,-7.05,0,*5C
1486267332.61,32185,9.31,72178.3,-6.07,-7.15,-7.05,0,*5D
1486267333.85,32186,9.25,72176.5,-6.09,-7.05,-7.05,0,*51
1486267335.1,32187,9.25,72178.5,-6.09,-7.01,-6.93,0,*5A
1486267336.35,32188,9.25,72178.8,-6.09,-6.93,-6.93,0,*5F
1486267337.6,32189,9.25,72184.0,-6.09,-6.93,-6.93,0,*5E
1486267338.85,32190,9.25,72180.8,-6.09,-6.93,-6.93,0,*56
1486267340.09,32191,9.25,72178.8,-6.09,-7.01,-6.93,0,*5D
1486267341.34,32192,9.25,72174.8,-6.09,-7.01,-6.93,0,*5E
1486267342.59,32193,9.25,72180.3,-6.09,-7.01,-6.93,0,*5F
1486267343.83,32194,9.25,72184.8,-6.09,-7.01,-6.93,0,*58
1486267345.11,32195,9.25,72182.0,-6.07,-7.01,-6.93,0,*57
1486267346.38,32196,9.25,72182.0,-6.07,-6.93,-6.93,0,*5E
1486267347.66,32197,9.31,72184.3,-6.07,-7.01,-6.93,0,*55
1486267348.93,32198,9.25,72182.0,-6.07,-6.93,-6.93,0,*50
1486267350.18,32199,9.31,72184.0,-6.07,-6.89,-6.93,0,*5A
1486267351.4,32200,9.25,72182.8,-6.07,-6.89,-6.89,0,*52
1486267352.63,32201,9.25,72180.3,-6.07,-6.89,-6.89,0,*53
1486267353.85,32202,9.25,72180.5,-6.07,-6.89,-6.85,0,*5C
1486267355.1,32203,9.31,72188.8,-6.07,-7.01,-6.89,0,*50
1486267356.37,32204,9.25,72180.5,-6.07,-6.93,-6.93,0,*56
1486267357.65,32205,9.25,72180.0,-6.07,-6.93,-6.93,0,*57
1486267358.93,32206,9.25,72180.0,-6.07,-6.93,-6.93,0,*54
1486267360.2,32207,9.25,72180.0,-6.07,-6.93,-6.93,0,*55
1486267361.48,32208,9.25,72182.0,-6.07,-6.93,-6.93,0,*5A
1486267362.75,32209,9.25,72184.8,-6.07,-6.93,-6.93,0,*5B
1486267364.01,32210,9.31,72184.3,-6.07,-6.93,-6.89,0,*58
1486267365.28,32211,9.25,72184.8,-6.07,-6.93,-6.93,0,*52
1486267366.53,32212,9.25,72182.5,-6.09,-6.93,-6.93,0,*5F
1486267367.78,32213,9.25,72186.0,-6.09,-6.93,-6.93,0,*5E
1486267369.05,32214,9.25,72180.3,-6.07,-7.01,-6.93,0,*5D
1486267370.33,32215,9.25,72184.3,-6.07,-6.93,-6.93,0,*56
1486267371.56,32216,9.25,72180.5,-6.05,-7.11,-7.01,0,*56
1486267372.82,32217,9.25,72182.0,-6.07,-7.05,-7.05,0,*54
1486267374.09,32218,9.25,72176.0,-6.07,-7.01,-7.05,0,*5F
1486267375.33,32219,9.25,72176.8,-6.09,-7.01,-7.01,0,*54
1486267376.61,32220,9.25,72180.8,-6.07,-7.01,-7.01,0,*50
1486267377.88,32221,9.25,72180.5,-6.07,-7.01,-7.01,0,*51
1486267379.15,32222,9.25,72178.0,-6.07,-6.93,-6.93,0,*52
1486267380.4,32223,9.31,72182.5,-6.09,-7.01,-6.93,0,*57
1486267381.67,32224,9.25,72182.8,-6.11,-7.05,-7.05,0,*53
1486267382.91,32225,9.25,72176.5,-6.09,-7.01,-7.01,0,*5B
1486267384.16,32226,9.25,72180.5,-6.09,-6.93,-6.93,0,*58
1486267385.41,32227,9.25,72180.3,-6.09,-7.01,-7.01,0,*59
1486267386.65,32228,9.25,72176.3,-6.09,-6.93,-7.05,0,*58
1486267387.9,32229,9.25,72176.8,-6.09,-7.05,-7.01,0,*53
1486267389.15,32230,9.25,72182.0,-6.09,-6.93,-6.93,0,*5F
1486267390.42,32231,9.25,72180.8,-6.11,-6.97,-6.97,0,*57
1486267391.67,32232,9.25,72178.5,-6.09,-7.01,-6.93,0,*57
1486267392.92,32233,9.31,72182.3,-6.09,-6.93,-6.93,0,*5C
1486267394.17,32234,9.25,72180.3,-6.09,-6.93,-6.93,0,*5B
1486267395.42,32235,9.25,72180.5,-6.09,-7.01,-6.93,0,*50
1486267396.66,32236,9.25,72176.5,-6.09,-6.93,-6.93,0,*59
1486267397.91,32237,9.25,72180.8,-6.09,-6.97,-6.93,0,*5C
1486267399.14,32238,9.31,72180.8,-6.09,-6.93,-6.89,0,*5C
1486267400.39,32239,9.25,72176.5,-6.09,-6.93,-6.93,0,*56
1486267401.64,32240,9.25,72176.0,-6.09,-6.93,-6.93,0,*58
1486267402.89,32241,9.25,72178.3,-6.09,-7.01,-6.93,0,*53
1486267404.11,32242,9.25,72178.0,-6.09,-6.93,-6.89,0,*51
1486267405.31,32243,9.25,72176.5,-6.09,-6.89,-6.89,0,*5B
1486267406.5,32244,9.25,72178.0,-6.09,-6.89,-6.89,0,*5C
1486267407.7,32245,9.25,72176.8,-6.09,-6.89,-6.89,0,*5D
1486267408.9,32246,9.31,72180.0,-6.09,-6.89,-6.89,0,*5E
1486267410.12,32247,9.25,72176.5,-6.09,-6.93,-6.89,0,*54
1486267411.34,32248,9.25,72178.3,-6.09,-7.01,-6.89,0,*51
1486267412.56,32249,9.31,72180.3,-6.09,-7.01,-6.89,0,*50
1486267413.82,32250,9.25,72178.0,-6.09,-6.93,-6.93,0,*59
1486267415.06,32251,9.25,72182.5,-6.09,-6.97,-6.93,0,*5C
1486267416.31,32252,9.25,72180.3,-6.09,-6.93,-6.93,0,*5B
1486267417.59,32253,9.25,72180.5,-6.07,-6.93,-6.93,0,*54
1486267418.84,32254,9.25,72180.5,-6.09,-6.93,-6.93,0,*5D
1486267420.09,32255,9.25,72184.0,-6.09,-6.93,-6.93,0,*5C
1486267421.34,32256,9.25,72182.0,-6.09,-6.93,-6.93,0,*5F
1486267422.59,32257,9.25,72182.3,-6.09,-7.01,-6.93,0,*54
1486267423.83,32258,9.25,72182.0,-6.09,-7.01,-6.93,0,*5B
1486267425.05,32259,9.25,72178.5,-6.09,-7.11,-7.05,0,*55
1486267426.29,32260,9.25,72182.5,-6.09,-7.05,-7.05,0,*5A
1486267427.54,32261,9.25,72182.0,-6.09,-7.01,-7.01,0,*5B
1486267428.79,32262,9.25,72180.5,-6.09,-6.93,-6.93,0,*58
1486267430.04,32263,9.25,72176.5,-6.09,-6.93,-6.93,0,*59
1486267431.31,32264,9.25,72176.0,-6.11,-6.97,-7.05,0,*5D
1486267432.55,32265,9.25,72180.5,-6.09,-7.05,-7.01,0,*5B
1486267433.8,32266,9.25,72178.5,-6.09,-7.01,-6.93,0,*56
1486267435.04,32267,9.31,72180.8,-6.09,-7.01,-7.01,0,*5D
1486267436.28,32268,9.31,72182.5,-6.09,-7.05,-7.05,0,*52
1486267437.53,32269,9.25,72178.8,-6.07,-7.05,-7.15,0,*5C
1486267438.78,32270,9.25,72180.3,-6.11,-7.11,-7.05,0,*57
1486267440.02,32271,9.25,72180.8,-6.09,-7.01,-7.01,0,*5A
1486267441.27,32272,9.25,72174.8,-6.09,-7.01,-7.01,0,*59
1486267442.54,32273,9.25,72180.5,-6.11,-7.05,-6.97,0,*5B
1486267443.79,32274,9.25,72180.8,-6.09,-7.01,-7.01,0,*5F
1486267445.05,32275,9.25,72180.3,-6.11,-7.05,-7.05,0,*57
1486267446.3,32276,9.31,72184.0,-6.11,-7.11,-7.05,0,*51
1486267447.57,32277,9.25,72180.0,-6.11,-7.05,-7.05,0,*55
1486267448.84,32278,9.25,72182.5,-6.11,-7.05,-6.97,0,*50
1486267450.12,32279,9.25,72180.8,-6.11,-6.97,-6.97,0,*5B
1486267451.36,32280,9.25,72180.8,-6.09,-6.93,-6.93,0,*54
1486267452.64,32281,9.25,72180.8,-6.11,-6.97,-6.97,0,*5C
1486267453.89,32282,9.25,72182.5,-6.09,-6.93,-6.93,0,*56
1486267455.12,32283,9.25,72180.8,-6.09,-6.93,-6.89,0,*5C
1486267456.39,32284,9.25,72182.0,-6.11,-6.97,-6.93,0,*5D
1486267457.64,32285,9.25,72182.5,-6.11,-6.93,-6.89,0,*53
1486267458.87,32286,9.25,72184.0,-6.09,-6.93,-6.89,0,*59
1486267460.14,32287,9.25,72186.5,-6.11,-6.97,-6.93,0,*5E
1486267461.39,32288,9.25,72184.8,-6.09,-7.01,-6.93,0,*56
1486267462.64,32289,9.25,72186.5,-6.09,-6.93,-6.93,0,*5D
1486267463.91,32290,9.25,72182.0,-6.11,-7.05,-7.05,0,*5C
1486267465.15,32291,9.25,72184.3,-6.09,-7.01,-6.93,0,*5E
1486267466.42,32292,9.25,72182.3,-6.11,-6.97,-7.05,0,*54
1486267467.69,32293,9.25,72184.8,-6.11,-7.05,-6.97,0,*55
1486267468.94,32294,9.25,72182.0,-6.09,-6.93,-6.93,0,*51
1486267470.22,32295,9.31,72188.8,-6.11,-6.97,-6.93,0,*5D
1486267471.47,32296,9.25,72182.8,-6.11,-6.93,-6.89,0,*51
1486267472.75,32297,9.25,72184.8,-6.11,-6.93,-6.93,0,*5B
1486267474.0,32298,9.31,72184.8,-6.09,-6.93,-7.01,0,*57
1486267475.24,32299,9.25,72186.5,-6.09,-7.01,-6.93,0,*56
1486267476.49,32300,9.31,72186.3,-6.09,-7.01,-6.93,0,*57
1486267477.76,32301,9.31,72186.3,-6.11,-7.05,-7.05,0,*55
1486267479.01,32302,9.25,72180.5,-6.09,-6.93,-6.93,0,*5F
1486267480.26,32303,9.25,72182.3,-6.09,-6.93,-6.93,0,*5E
1486267481.5,32304,9.31,72184.3,-6.09,-6.93,-6.93,0,*59
1486267482.78,32305,9.25,72182.3,-6.11,-6.97,-6.97,0,*51
1486267484.03,32306,9.25,72182.8,-6.09,-6.93,-6.93,0,*5B
1486267485.25,32307,9.25,72182.3,-6.09,-6.93,-6.85,0,*5D
1486267486.45,32308,9.31,72184.5,-6.09,-6.89,-6.89,0,*55
1486267487.65,32309,9.25,72176.3,-6.09,-6.85,-6.89,0,*58
1486267488.92,32310,9.25,72176.5,-6.11,-6.93,-6.93,0,*55
1486267490.12,32311,9.25,72176.8,-6.09,-6.89,-6.85,0,*51
1486267491.32,32312,9.25,72182.5,-6.09,-6.89,-6.89,0,*5E
1486267492.54,32313,9.25,72182.0,-6.09,-6.89,-6.93,0,*54
1486267493.78,32314,9.25,72184.3,-6.09,-7.01,-6.93,0,*52
1486267495.03,32315,9.25,72182.0,-6.09,-7.01,-7.01,0,*59
1486267496.28,32316,9.31,72186.3,-6.09,-6.93,-6.93,0,*5A
1486267497.53,32317,9.25,72180.5,-6.09,-6.93,-7.01,0,*51
1486267498.78,32318,9.25,72186.8,-6.09,-7.01,-6.93,0,*5E
1486267500.03,32319,9.25,72182.5,-6.09,-6.97,-6.93,0,*51
1486267501.27,32320,9.25,72184.3,-6.09,-6.93,-7.01,0,*55
1486267502.52,32321,9.25,72178.0,-6.09,-7.01,-7.01,0,*5E
1486267503.79,32322,9.25,72182.3,-6.11,-6.97,-7.05,0,*5E
1486267505.04,32323,9.25,72180.8,-6.09,-7.01,-7.01,0,*5C
1486267506.28,32324,9.25,72182.0,-6.09,-7.01,-7.01,0,*5B
1486267507.53,32325,9.25,72180.8,-6.09,-6.93,-7.01,0,*50
1486267508.8,32326,9.25,72182.8,-6.11,-7.05,-7.05,0,*50
1486267510.04,32327,9.25,72180.0,-6.09,-7.01,-7.01,0,*58
1486267511.29,32328,9.25,72178.8,-6.09,-6.93,-7.01,0,*5D
1486267512.54,32329,9.25,72180.5,-6.09,-6.93,-6.93,0,*56
1486267513.79,32330,9.25,72180.3,-6.09,-6.93,-6.93,0,*5E
1486267515.04,32331,9.25,72180.3,-6.09,-6.93,-6.93,0,*5F
1486267516.29,32332,9.25,72178.5,-6.09,-6.93,-6.93,0,*5C
1486267517.51,32333,9.25,72180.3,-6.09,-6.97,-6.85,0,*5E
1486267518.71,32334,9.25,72180.0,-6.09,-6.89,-6.89,0,*5A
1486267519.91,32335,9.31,72184.5,-6.09,-6.89,-6.89,0,*5B
1486267521.16,32336,9.25,72182.5,-6.09,-6.93,-6.93,0,*58
1486267522.35,32337,9.25,72184.0,-6.09,-6.89,-6.89,0,*59
1486267523.63,32338,9.25,72186.5,-6.11,-7.05,-6.93,0,*51
1486267524.9,32339,9.25,72182.5,-6.11,-6.93,-6.93,0,*5E
1486267526.1,32340,9.25,72180.8,-6.09,-6.89,-6.89,0,*59
1486267527.3,32341,9.25,72180.3,-6.09,-6.89,-6.89,0,*58
1486267528.57,32342,9.25,72180.3,-6.11,-6.97,-6.93,0,*56
1486267529.82,32343,9.25,72182.8,-6.09,-6.93,-6.93,0,*5A
1486267531.07,32344,9.25,72178.5,-6.09,-6.93,-6.93,0,*5D
1486267532.32,32345,9.25,72180.0,-6.09,-6.93,-6.93,0,*5C
1486267533.57,32346,9.31,72182.3,-6.09,-6.93,-6.93,0,*5F
1486267534.82,32347,9.25,72176.8,-6.09,-6.93,-6.93,0,*5E
1486267536.09,32348,9.25,72180.0,-6.11,-6.97,-7.05,0,*52
1486267537.34,32349,9.25,72176.5,-6.09,-6.93,-6.93,0,*50
1486267538.61,32350,9.25,72180.3,-6.11,-7.05,-6.97,0,*5B
1486267539.86,32351,9.31,72180.3,-6.09,-6.93,-6.93,0,*59
1486267541.11,32352,9.25,72178.8,-6.09,-7.01,-7.01,0,*5A
1486267542.36,32353,9.25,72176.8,-6.09,-7.01,-6.93,0,*51
1486267543.6,32354,9.25,72182.0,-6.09,-6.93,-7.01,0,*56
1486267544.85,32355,9.25,72178.5,-6.09,-6.93,-6.93,0,*5D
1486267546.1,32356,9.25,72178.3,-6.09,-7.01,-6.93,0,*54
1486267547.35,32357,9.25,72180.8,-6.09,-7.01,-6.93,0,*55
1486267548.56,32358,9.25,72180.3,-6.09,-7.15,-7.05,0,*51
1486267549.81,32359,9.25,72180.3,-6.09,-6.93,-6.93,0,*51
1486267551.06,32360,9.25,72176.3,-6.09,-7.01,-7.01,0,*5B
1486267552.31,32361,9.25,72176.0,-6.09,-6.93,-7.01,0,*50
1486267553.56,32362,9.25,72180.0,-6.09,-6.93,-6.93,0,*59
1486267554.81,32363,9.25,72176.8,-6.09,-6.93,-6.93,0,*58
1486267556.06,32364,9.25,72178.5,-6.09,-6.93,-6.93,0,*5F
1486267557.31,32365,9.25,72178.8,-6.09,-6.93,-6.93,0,*5E
1486267558.55,32366,9.25,72180.5,-6.09,-7.01,-6.93,0,*57
1486267559.8,32367,9.25,72180.5,-6.09,-7.01,-7.01,0,*5C
1486267561.05,32368,9.25,72176.8,-6.09,-6.93,-6.93,0,*53
1486267562.33,32369,9.25,72178.8,-6.11,-6.97,-6.97,0,*5B
1486267563.57,32370,9.25,72178.5,-6.09,-6.93,-6.93,0,*5A
1486267564.82,32371,9.31,72184.3,-6.09,-7.01,-6.93,0,*51
1486267566.07,32372,9.31,72180.3,-6.09,-7.01,-6.93,0,*52
1486267567.32,32373,9.25,72180.5,-6.09,-6.93,-6.93,0,*59
1486267568.57,32374,9.25,72182.5,-6.11,-7.11,-6.97,0,*58
1486267569.81,32375,9.25,72180.8,-6.09,-7.05,-7.05,0,*5F
1486267571.04,32376,9.25,72182.5,-6.11,-7.19,-7.19,0,*55
1486267572.31,32377,9.25,72182.3,-6.07,-7.05,-7.05,0,*53
1486267573.54,32378,9.25,72184.3,-6.11,-7.19,-7.19,0,*5B
1486267574.78,32379,9.25,72182.0,-6.11,-7.11,-7.05,0,*5F
1486267576.02,32380,9.25,72178.3,-6.09,-7.05,-7.05,0,*55
1486267577.26,32381,9.25,72182.8,-6.09,-7.05,-7.05,0,*54
1486267578.51,32382,9.31,72186.8,-6.09,-7.05,-6.93,0,*59
1486267579.75,32383,9.25,72182.3,-6.09,-7.01,-7.01,0,*56
1486267580.97,32384,9.25,72180.3,-6.09,-7.05,-7.15,0,*50
1486267582.18,32385,9.25,72176.5,-6.09,-7.11,-7.11,0,*50
1486267583.41,32386,9.25,72178.5,-6.11,-7.19,-7.19,0,*5A
1486267584.66,32387,9.25,72178.5,-6.11,-7.31,-7.23,0,*58
1486267585.89,32388,9.31,72174.3,-6.11,-7.11,-7.19,0,*5C
1486267587.15,32389,9.25,72170.0,-6.11,-7.05,-7.11,0,*50
1486267588.39,32390,9.25,72172.8,-6.09,-6.93,-7.01,0,*5E
1486267589.67,32391,9.25,72172.3,-6.11,-6.97,-6.97,0,*5C
1486267590.94,32392,9.25,72176.5,-6.11,-6.97,-7.05,0,*55
1486267592.17,32393,9.25,72176.5,-6.11,-7.11,-7.11,0,*5E
1486267593.44,32394,9.25,72168.0,-6.11,-7.05,-7.05,0,*59
1486267594.67,32395,9.25,72164.3,-6.11,-7.19,-7.11,0,*50
1486267595.88,32396,9.25,72166.3,-6.09,-7.19,-7.19,0,*52
1486267597.08,32397,9.25,72170.5,-6.09,-7.19,-7.11,0,*5B
1486267598.31,32398,9.25,72174.0,-6.11,-7.19,-7.19,0,*55
1486267599.54,32399,9.25,72172.5,-6.11,-7.11,-7.11,0,*54
1486267600.76,32400,9.25,72174.8,-6.09,-7.15,-7.05,0,*5B
1486267602.03,32401,9.25,72172.5,-6.11,-7.05,-6.97,0,*58
1486267603.23,32402,9.31,72182.5,-6.09,-7.15,-7.15,0,*58
1486267604.51,32403,9.25,72178.8,-6.11,-7.31,-7.31,0,*50
1486267605.73,32404,9.25,72174.3,-6.11,-7.23,-7.23,0,*57
1486267606.97,32405,9.25,72174.3,-6.11,-7.19,-7.11,0,*5E
1486267608.2,32406,9.25,72174.0,-6.13,-7.05,-7.11,0,*52
1486267609.4,32407,9.25,72176.0,-6.13,-7.19,-7.19,0,*56
1486267610.61,32408,9.25,72168.8,-6.13,-7.23,-7.23,0,*59
1486267611.83,32409,9.25,72174.3,-6.13,-7.31,-7.19,0,*52
1486267613.06,32410,9.31,72174.5,-6.13,-7.05,-7.11,0,*55
1486267614.28,32411,9.25,72170.5,-6.13,-7.11,-7.05,0,*54
1486267615.5,32412,9.25,72174.8,-6.13,-7.11,-7.05,0,*57
1486267616.74,32413,9.25,72168.8,-6.13,-7.05,-7.05,0,*53
1486267617.99,32414,9.25,72172.8,-6.13,-7.05,-6.97,0,*5E
1486267619.2,32415,9.25,72174.3,-6.13,-7.11,-7.11,0,*55
1486267620.41,32416,9.25,72174.5,-6.13,-7.19,-7.11,0,*5E
1486267621.66,32417,9.25,72174.3,-6.13,-6.97,-7.05,0,*5D
1486267622.86,32418,9.25,72172.8,-6.13,-7.19,-7.19,0,*58
1486267624.09,32419,9.25,72172.5,-6.11,-7.11,-7.11,0,*5B
1486267625.32,32420,9.25,72176.5,-6.11,-7.19,-7.19,0,*51
1486267626.53,32421,9.25,72172.0,-6.13,-7.11,-7.11,0,*52
1486267627.74,32422,9.25,72174.0,-6.13,-7.19,-7.11,0,*59
1486267628.98,32423,9.25,72172.5,-6.13,-7.05,-7.05,0,*50
1486267630.23,32424,9.25,72174.3,-6.13,-7.05,-6.97,0,*5D
1486267631.47,32425,9.25,72178.0,-6.13,-7.05,-7.05,0,*56
1486267632.72,32426,9.31,72178.5,-6.11,-7.11,-7.05,0,*52
1486267633.99,32427,9.25,72176.5,-6.11,-7.05,-7.05,0,*56
1486267635.26,32428,9.25,72178.8,-6.11,-7.05,-6.97,0,*53
1486267636.53,32429,9.25,72176.3,-6.11,-6.97,-6.97,0,*58
1486267637.81,32430,9.25,72178.3,-6.11,-6.97,-6.97,0,*50
1486267639.09,32431,9.25,72178.0,-6.11,-6.97,-6.97,0,*51
1486267640.34,32432,9.25,72176.8,-6.13,-6.97,-6.97,0,*50
1486267641.59,32433,9.31,72174.0,-6.13,-7.05,-6.97,0,*5B
1486267642.84,32434,9.25,72174.5,-6.13,-6.97,-6.97,0,*56
1486267644.09,32435,9.25,72172.3,-6.13,-6.97,-6.97,0,*57
1486267645.36,32436,9.25,72172.0,-6.11,-6.97,-6.97,0,*56
1486267646.64,32437,9.25,72172.8,-6.11,-7.05,-6.97,0,*5D
1486267647.91,32438,9.25,72174.8,-6.11,-6.97,-6.97,0,*58
1486267649.19,32439,9.25,72174.5,-6.11,-6.97,-6.97,0,*59
1486267650.46,32440,9.25,72172.5,-6.11,-7.05,-6.97,0,*5D
1486267651.74,32441,9.25,72172.8,-6.11,-6.97,-6.97,0,*56
1486267653.01,32442,9.25,72172.8,-6.11,-6.97,-6.97,0,*55
1486267654.23,32443,9.25,72174.0,-6.09,-7.05,-7.15,0,*5C
1486267655.45,32444,9.25,72172.3,-6.09,-7.15,-7.05,0,*5B
1486267656.68,32445,9.25,72172.5,-6.11,-7.19,-7.19,0,*52
1486267657.91,32446,9.25,72172.8,-6.11,-7.19,-7.11,0,*59
1486267659.14,32447,9.25,72172.5,-6.13,-7.11,-7.05,0,*57
1486267660.38,32448,9.31,72176.0,-6.13,-6.97,-7.05,0,*57
1486267661.63,32449,9.31,72176.5,-6.13,-7.05,-6.97,0,*56
1486267662.85,32450,9.25,72172.0,-6.13,-7.11,-7.05,0,*51
1486267664.07,32451,9.25,72170.3,-6.13,-7.11,-7.05,0,*50
1486267665.31,32452,9.25,72172.8,-6.13,-7.05,-7.05,0,*56
1486267666.56,32453,9.25,72174.8,-6.13,-7.05,-6.97,0,*5D
1486267667.81,32454,9.25,72172.5,-6.13,-6.97,-6.97,0,*50
1486267669.09,32455,9.25,72176.0,-6.11,-6.97,-6.97,0,*53
1486267670.37,32456,9.25,72172.0,-6.11,-6.97,-6.97,0,*50
1486267671.64,32457,9.25,72176.8,-6.11,-7.05,-6.97,0,*5B
1486267672.88,32458,9.25,72178.3,-6.13,-7.05,-7.05,0,*5C
1486267674.13,32459,9.25,72174.8,-6.13,-6.97,-6.97,0,*5D
1486267675.37,32460,9.25,72172.8,-6.13,-7.05,-7.05,0,*57
1486267676.59,32461,9.25,72178.8,-6.13,-7.11,-7.05,0,*53
1486267677.8,32462,9.25,72176.8,-6.13,-7.11,-7.11,0,*55
1486267679.03,32463,9.31,72178.0,-6.13,-7.11,-7.05,0,*51
1486267680.29,32464,9.25,72172.8,-6.11,-7.05,-7.05,0,*51
1486267681.57,32465,9.25,72174.3,-6.11,-6.97,-6.97,0,*50
1486267682.84,32466,9.25,72176.0,-6.11,-6.97,-6.97,0,*53
1486267684.09,32467,9.25,72176.3,-6.13,-6.97,-7.05,0,*5A
1486267685.34,32468,9.25,72172.5,-6.13,-6.97,-6.97,0,*5F
1486267686.59,32469,9.25,72174.0,-6.13,-6.97,-6.97,0,*5E
1486267687.84,32470,9.25,72168.3,-6.13,-6.93,-6.97,0,*52
1486267689.1,32471,9.25,72174.8,-6.13,-6.93,-6.97,0,*53
1486267690.37,32472,9.25,72172.5,-6.11,-6.97,-6.97,0,*56
1486267691.65,32473,9.25,72168.8,-6.11,-6.97,-6.97,0,*57
1486267692.92,32474,9.25,72174.0,-6.11,-6.97,-6.97,0,*50
1486267694.17,32475,9.25,72170.5,-6.09,-6.93,-6.93,0,*58
1486267695.45,32476,9.25,72176.3,-6.11,-6.93,-6.93,0,*52
1486267696.73,32477,9.25,72178.5,-6.11,-6.93,-6.93,0,*53
1486267698.0,32478,9.25,72178.5,-6.11,-6.93,-6.93,0,*5C
1486267699.23,32479,9.25,72180.3,-6.09,-6.93,-6.89,0,*5F
1486267700.5,32480,9.25,72174.8,-6.11,-7.05,-6.97,0,*51
1486267701.78,32481,9.25,72178.0,-6.11,-6.97,-6.97,0,*5A
1486267703.05,32482,9.25,72174.3,-6.11,-7.05,-6.97,0,*53
1486267704.32,32483,9.25,72176.8,-6.11,-6.97,-7.05,0,*52
1486267705.59,32484,9.25,72176.0,-6.11,-7.05,-6.97,0,*55
1486267706.86,32485,9.25,72174.3,-6.11,-7.05,-6.97,0,*54
1486267708.13,32486,9.25,72178.5,-6.11,-6.97,-7.05,0,*57
1486267709.41,32487,9.25,72174.5,-6.11,-6.97,-6.97,0,*5C
1486267710.68,32488,9.25,72174.0,-6.11,-7.05,-6.97,0,*59
1486267711.95,32489,9.25,72174.0,-6.11,-6.97,-7.05,0,*58
1486267713.21,32490,9.25,72174.3,-6.11,-7.05,-7.05,0,*5A
1486267714.49,32491,9.25,72172.0,-6.11,-6.97,-6.97,0,*5B
1486267715.76,32492,9.25,72174.3,-6.11,-7.05,-7.05,0,*58
1486267717.0,32493,9.25,72172.3,-6.13,-7.05,-7.05,0,*5B
1486267718.24,32494,9.25,72174.3,-6.11,-7.11,-7.05,0,*5B
1486267719.49,32495,9.31,72180.3,-6.13,-6.97,-7.05,0,*57
1486267720.73,32496,9.25,72178.3,-6.13,-7.05,-7.05,0,*5E
1486267722.0,32497,9.25,72174.0,-6.11,-6.97,-7.05,0,*57
1486267723.27,32498,9.25,72174.8,-6.11,-7.05,-7.05,0,*52
1486267724.54,32499,9.25,72176.0,-6.11,-7.05,-6.97,0,*59